Location: ??????
(55.7522°N, 37.6156°E)
Time: 17:04:07
(UTC+00:00)

DNEPR-1 R/B - Pass Details

Date: 14 June 2025
Orbit: 586 x 1327 km, 64.6° (Epoch: 13 July)

Event Time Altitude Azimuth Distance (km) Brightness Sun altitude
Rises 21:01:25 0° 236° (WSW) 3,493 7.1 -10.7°
Reaches altitude 10° 21:04:08 10° 239° (WSW) 2,437 6.4 -10.7°
Maximum altitude 21:09:36 68° 323° (NW) 780 4.3 -10.8°
Drops below altitude 10° 21:14:14 10° 47° (NE) 2,065 6.8 -10.9°
Sets 21:16:23 0° 50° (NE) 2,918 7.6 -10.9°
